This is the latest recevied weather packets stored in our database for station/object K6CED. If no packets are shown the sender has not sent any weather packets the latest 10 day(s).
| Time | Temp. | Humidity | Pressure | Rain* | Wind** | Luminosity | Snow |
|---|---|---|---|---|---|---|---|
| 1787439354 | 36.67° C | 30% | 1015.3 hPa | 0 mm | - | 534 W/m² | - |
| 1787439050 | 37.22° C | 29% | 1015.3 hPa | 0 mm | - | 555 W/m² | - |
| 1787438745 | 36.67° C | 28% | 1015.6 hPa | 0 mm | - | 570 W/m² | - |
| 1787438443 | 36.67° C | 30% | 1015.6 hPa | 0 mm | - | 585 W/m² | - |
| 1787438138 | 36.67° C | 29% | 1015.5 hPa | 0 mm | - | 600 W/m² | - |
| 1787437834 | 37.22° C | 29% | 1015.5 hPa | 0 mm | - | 612 W/m² | - |
| 1787437530 | 37.78° C | 29% | 1015.5 hPa | 0 mm | - | 625 W/m² | - |
| 1787437227 | 37.78° C | 28% | 1015.6 hPa | 0 mm | - | 637 W/m² | - |
| 1787436922 | 37.78° C | 29% | 1015.5 hPa | 0 mm | - | 650 W/m² | - |
| 1787436619 | 37.78° C | 30% | 1015.5 hPa | 0 mm | - | 663 W/m² | - |
| 1787436313 | 38.33° C | 29% | 1015.7 hPa | 0 mm | - | 674 W/m² | - |
| 1787436008 | 37.78° C | 30% | 1015.5 hPa | 0 mm | - | 682 W/m² | - |
| 1787435703 | 37.78° C | 30% | 1015.9 hPa | 0 mm | - | 691 W/m² | - |
| 1787435399 | 37.78° C | 28% | 1015.8 hPa | 0 mm | - | 697 W/m² | - |
| 1787435096 | 37.78° C | 32% | 1015.9 hPa | 0 mm | - | 700 W/m² | - |
| 1787434790 | 37.22° C | 33% | 1015.9 hPa | 0 mm | - | 705 W/m² | - |
| 1787434487 | 37.78° C | 31% | 1015.8 hPa | 0 mm | - | 709 W/m² | - |
| 1787434182 | 37.78° C | 31% | 1015.7 hPa | 0 mm | - | 711 W/m² | - |
| 1787433873 | 38.33° C | 31% | 1016 hPa | 0 mm | - | 715 W/m² | - |
| 1787433567 | 37.22° C | 33% | 1016 hPa | 0 mm | - | 718 W/m² | - |
| 1787433263 | 38.33° C | 31% | 1016.1 hPa | 0 mm | - | 724 W/m² | - |
| 1787432960 | 38.89° C | 31% | 1015.9 hPa | 0 mm | - | 727 W/m² | - |
| 1787432656 | 38.33° C | 32% | 1016.1 hPa | 0 mm | - | 728 W/m² | - |
| 1787432355 | 37.22° C | 32% | 1016.2 hPa | 0 mm | - | 728 W/m² | - |
| 1787432050 | 37.78° C | 32% | 1016.1 hPa | 0 mm | - | 728 W/m² | - |
* Rain latest hour (hover to see other rain measurements)
** Current wind speed in m/s (hover to see current wind gust speed)